Location: Tamazert
(32.6352°N, 5.2072°W)
Time: 08:11:13
(UTC+00:00)

Tiros 1 despin weight - Pass Details

Date: 06 October 2022
Orbit: 590 x 637 km, 48.2° (Epoch: 28 November)

Event Time Altitude Azimuth Distance (km) Brightness Sun altitude
Rises 17:38:16 0° 307° (NW) 2,856 ? 3.5°
Maximum altitude 17:43:37 11° 360° (N) 1,921 ? 2.4°
Drops below altitude 10° 17:44:43 10° 14° (NNE) 1,975 ? 2.2°
Sets 17:49:01 0° 52° (NE) 2,896 ? 1.3°
